Probability
0 0 0 1 2 3 2 1 0 0 0 1 2 2 1 0 0 0 0 0 0 1 2 3 1 0 0 0 0 0 0 0 0 0 0 0 0 0 0 0 0 0 0
0 0 0 0 2 3 3 1 0 0 0 0 1 2 2 1 0 0 0 0 0 1 2 3 3 1 1 1 1 1 0 0 0 0 0 0 0 0 0 0 0 0 0
0 0 1 1 2 3 3 2 0 0 0 0 1 2 2 1 0 0 0 0 0 0 1 3 4 4 3 3 2 1 1 1 1 0 0 0 0 0 0 0 0 0 0
0 0 1 2 2 2 2 1 0 0 0 0 0 1 2 2 1 0 0 0 0 0 0 2 3 4 4 4 2 1 1 2 2 1 0 0 0 0 0 0 0 0 0
0 0 1 1 1 1 0 0 0 0 0 0 0 0 1 1 1 0 0 0 0 0 0 0 1 2 3 3 2 1 1 2 3 2 1 0 0 0 0 0 0 0 0
0 0 0 0 0 0 0 0 0 0 0 0 0 0 0 0 0 0 0 0 0 0 0 0 0 0 1 1 1 1 1 1 2 2 1 0 0 0 0 0 0 0 0
0 0 0 0 0 0 0 0 0 0 0 0 0 0 0 0 0 0 0 0 0 0 0 0 0 0 0 0 0 0 0 0 1 1 1 1 1 0 0 0 0 0 0
0 0 0 0 0 0 0 0 0 0 0 0 0 0 0 0 0 0 0 0 0 0 0 0 0 0 0 0 0 0 0 0 0 0 1 1 1 1 1 1 0 0 0
0 0 0 0 0 0 0 0 0 0 0 0 0 0 0 0 0 0 0 0 0 0 0 0 0 0 0 0 0 0 0 0 0 0 0 1 1 1 1 1 0 0 0
0 0 0 0 0 0 0 0 0 0 0 0 0 0 0 0 0 0 0 0 0 0 0 0 0 0 0 0 0 0 0 0 0 0 0 0 0 0 1 1 0 0 0
0 0 0 0 0 0 0 0 0 0 0 0 0 0 0 0 0 0 0 0 0 0 0 0 0 0 0 0 0 0 0 0 0 0 0 0 0 0 0 0 0 0 0
0 0 0 0 0 0 0 0 0 0 0 0 0 0 0 0 0 0 0 0 0 0 0 0 0 0 0 0 0 0 0 0 0 0 0 0 0 0 0 0 0 0 0
0 0 0 0 0 0 0 0 0 0 0 0 0 0 0 0 0 0 0 0 0 0 0 0 0 0 0 0 0 0 0 0 0 0 0 0 0 0 0 0 0 0 0
0 0 0 0 0 0 0 0 0 0 0 0 0 0 0 0 0 0 0 0 0 0 0 0 0 0 0 0 0 0 0 0 0 0 0 0 0 0 0 0 0 0 0
0 0 0 0 0 0 0 0 0 0 0 0 0 0 0 0 0 0 0 0 0 0 0 0 0 0 0 0 0 0 0 0 0 0 0 0 0 0 0 0 0 0 0
0 0 0 0 0 0 0 0 0 0 0 0 0 0 0 0 0 0 0 0 0 0 0 0 0 0 0 0 0 0 0 0 0 0 0 0 0 0 0 0 0 0 0
0 0 0 0 0 0 0 0 0 0 0 0 0 0 0 0 0 0 0 0 0 0 0 0 0 0 0 0 0 0 0 0 0 0 0 0 0 0 0 0 0 0 0
0 0 0 0 0 0 0 0 0 0 0 0 0 0 0 0 0 0 0 0 0 0 0 0 0 0 0 0 0 0 0 0 0 0 0 0 0 0 0 0 0 0 0
0 0 0 0 0 0 0 0 0 0 0 0 0 0 0 0 0 0 0 0 0 0 0 0 0 0 0 0 0 0 0 0 0 0 0 0 0 0 0 0 0 0 0
0 0 0 0 0 0 0 0 0 0 0 0 0 0 0 0 0 0 0 0 0 0 0 0 0 0 0 0 0 0 0 0 0 0 0 0 0 0 0 0 0 0 0
0 0 0 0 0 0 0 0 0 0 0 0 0 0 0 0 0 0 0 0 0 0 0 0 0 0 0 0 0 0 0 0 0 0 0 0 0 0 0 0 0 0 0
0 0 0 0 0 0 0 0 0 0 0 0 0 0 0 0 0 0 0 0 0 0 0 0 0 0 0 0 0 0 0 0 0 0 0 0 0 0 0 0 0 0 0
0 0 0 0 0 0 0 0 0 0 0 0 0 0 0 0 0 0 0 0 0 0 0 0 0 0 0 0 0 0 0 0 0 0 0 0 0 0 0 0 0 0 0
0 0 0 0 0 0 0 0 0 0 0 0 0 0 0 0 0 0 0 0 0 0 0 0 0 0 0 0 0 0 0 0 0 0 0 0 0 0 0 0 0 0 0
0 0 0 0 0 0 0 0 0 0 0 0 0 0 0 0 0 0 0 0 0 0 0 0 0 0 0 0 0 0 0 0 0 0 0 0 0 0 0 0 0 0 0
0 0 0 0 0 0 0 0 0 0 0 0 0 0 0 0 0 0 0 0 0 0 0 0 0 0 0 0 0 0 0 0 0 0 0 0 0 0 0 0 0 0 0
Wind_Speed
3 3 2 2 2 2 3 3 2 3 2 2 2 3 3 3 2 2 1 4 5 6 7 7 7 7 7 7 7 7 7 6 6 6 6 6 6 7 7 7 7 7 7
4 3 3 3 2 2 2 3 3 3 2 2 2 2 2 2 3 3 2 2 4 5 5 6 6 6 6 6 7 6 6 6 5 5 5 6 6 6 6 6 6 6 7
4 4 3 3 2 3 3 3 3 3 3 2 2 2 2 2 3 3 2 2 2 3 4 4 5 5 5 5 6 6 6 5 5 5 5 5 5 5 5 5 5 5 6
5 4 4 3 3 3 3 3 3 3 3 3 2 2 2 2 3 3 2 2 2 2 2 4 4 4 4 4 5 5 5 5 4 4 4 4 4 4 4 4 4 4 4
5 5 3 3 3 3 2 3 3 3 3 3 3 3 3 3 2 2 3 3 2 2 2 3 3 4 3 3 3 4 4 4 4 4 4 3 3 3 3 3 2 2 2
5 4 4 4 4 3 2 2 3 3 3 3 4 4 3 3 2 2 2 2 2 2 2 2 2 2 3 3 2 2 3 4 4 4 4 3 3 2 2 2 2 2 2
5 5 4 4 4 4 4 4 3 4 3 2 3 3 3 3 3 2 2 2 2 2 2 2 1 1 1 3 2 1 2 2 3 4 3 3 3 2 1 1 1 2 2
4 4 5 4 4 4 4 4 4 3 2 2 3 3 1 2 3 2 2 2 1 1 2 2 2 2 1 1 2 2 1 1 2 3 3 2 2 2 1 0 1 1 1
4 4 5 4 4 4 4 4 5 5 3 1 1 3 3 2 0 2 2 2 1 2 1 1 1 1 1 1 1 2 2 1 1 1 2 2 2 2 2 2 2 2 2
3 4 4 4 4 3 4 4 4 3 4 3 1 1 1 3 3 0 1 1 1 1 1 1 0 1 1 1 1 2 2 2 1 1 1 2 2 3 3 3 3 3 3
3 3 4 4 4 4 4 4 4 3 3 3 3 2 2 1 2 3 1 1 1 1 1 1 0 0 1 1 0 1 2 2 2 2 2 2 2 3 3 3 4 4 4
2 3 4 4 4 4 4 4 4 4 3 3 2 2 2 2 2 2 2 1 1 1 1 1 0 1 1 0 0 1 2 2 2 3 3 3 3 4 4 4 4 5 4
2 4 3 4 4 4 4 4 4 4 4 4 3 2 2 2 2 2 2 2 1 1 1 1 1 1 1 1 1 1 1 2 3 4 4 4 4 4 5 5 5 5 5
3 4 4 4 4 4 4 4 3 3 3 4 4 3 2 2 1 2 3 3 1 1 1 3 1 2 2 1 2 2 1 2 3 4 5 5 4 4 4 5 5 6 5
3 4 4 4 4 4 4 4 3 4 3 3 3 3 2 2 1 2 2 3 4 3 3 3 2 2 2 2 3 2 2 3 4 4 4 4 4 4 4 5 5 6 6
4 4 4 4 4 4 4 4 3 3 3 3 3 3 2 2 2 2 2 2 2 3 3 3 3 2 2 2 3 2 3 4 5 5 5 5 5 5 5 5 6 6 6
5 5 5 5 5 5 4 4 4 4 4 4 3 4 4 3 2 2 2 2 2 2 3 3 2 1 2 2 2 2 2 2 3 5 6 6 6 6 6 6 7 7 7
5 5 5 5 5 5 5 5 5 5 5 5 5 4 4 3 3 2 2 3 2 3 3 3 2 2 3 3 3 3 2 2 2 5 7 7 7 7 7 7 7 7 7
4 4 5 5 5 5 5 5 6 5 5 6 5 5 5 5 4 3 3 3 2 2 2 2 2 1 1 1 2 2 2 2 3 4 6 7 7 8 8 8 8 8 7
4 4 5 5 5 5 5 5 5 5 5 5 5 5 5 6 6 5 4 4 3 2 2 2 2 1 1 1 1 2 2 2 3 3 4 5 7 8 8 9 8 7 7
4 4 4 4 4 4 4 5 5 5 5 5 4 4 5 6 7 5 4 4 4 3 2 2 2 1 2 1 2 2 3 2 3 2 2 3 3 3 4 6 7 8 8
3 3 4 4 4 4 6 7 6 5 5 5 5 4 4 5 6 6 6 6 6 5 4 4 3 3 4 3 2 2 2 2 3 2 2 3 2 3 3 3 6 8 8
3 3 3 3 4 5 6 7 7 5 4 5 5 4 3 4 5 4 5 6 6 7 8 6 5 5 5 5 4 3 3 3 4 2 1 4 2 4 3 4 8 9 9
3 3 3 3 3 4 5 6 7 5 4 5 5 5 5 4 4 4 4 4 4 5 6 5 6 6 5 4 5 4 4 3 2 2 2 3 3 3 3 3 8 9 8
2 2 2 3 3 3 5 6 5 4 4 4 4 4 5 5 6 6 4 4 4 4 5 6 7 6 6 6 4 2 1 2 3 3 2 2 2 3 3 3 5 8 8
2 2 2 2 3 3 4 5 6 3 4 3 3 4 6 6 6 7 5 5 6 5 3 3 3 4 3 4 5 4 4 3 2 3 3 2 2 1 3 3 2 3 4
Wind_Direction
136 130 124 113 108 109 111 113 111 106 102 98 99 103 104 104 100 96 80 93 111 124 132 135 133 134 132 129 123 117 110 106 108 106 101 97 96 91 84 80 74 66 64
141 137 131 126 127 126 119 121 123 120 113 105 97 102 109 110 102 104 90 83 87 105 122 134 135 135 137 134 131 126 120 115 110 103 101 102 99 93 86 81 76 68 62
145 142 139 139 142 130 119 110 108 103 102 96 81 85 99 103 103 100 98 89 78 79 94 117 132 137 138 135 138 135 130 124 118 113 109 102 99 97 91 84 78 70 63
146 143 143 145 140 130 126 124 120 105 97 95 87 76 78 90 103 107 101 94 85 73 70 80 94 113 127 137 137 138 138 131 127 123 120 114 106 95 89 88 82 70 62
149 145 144 141 138 128 126 137 126 123 114 104 95 78 67 72 80 100 97 92 92 91 80 62 63 69 84 108 133 137 144 139 136 133 129 126 121 111 96 84 84 70 57
148 142 141 141 142 133 124 126 128 116 116 113 95 73 57 59 63 62 90 87 80 85 85 75 58 47 60 68 92 136 143 148 151 145 143 140 133 128 111 98 81 64 61
151 148 147 145 145 145 146 139 128 116 102 109 93 69 36 35 48 47 49 66 73 76 77 80 73 57 34 42 48 75 144 152 160 159 159 158 148 137 126 99 58 38 38
157 159 155 158 155 145 143 143 132 128 120 113 120 112 69 9 2 18 39 53 47 68 72 68 75 72 50 30 19 33 57 153 189 186 184 185 184 188 194 242 289 319 347
159 160 160 158 158 155 162 161 153 147 151 133 117 138 149 188 292 344 8 40 37 55 50 43 63 68 64 40 4 4 9 4 244 206 208 216 219 228 244 266 279 288 304
160 160 163 163 164 164 167 169 163 155 152 157 144 97 139 147 149 162 328 359 36 45 29 16 46 61 68 56 17 9 357 350 310 285 274 267 254 255 258 269 282 287 296
173 170 170 172 173 174 174 166 157 159 161 163 163 148 117 91 124 146 205 292 347 337 322 286 267 47 47 55 31 5 347 317 278 278 277 281 288 290 286 286 287 290 286
181 181 179 178 180 175 175 171 168 168 170 166 167 165 161 160 170 155 174 198 243 285 303 284 245 239 246 204 327 354 331 311 290 276 275 280 291 298 299 297 297 298 288
191 191 178 181 181 178 176 169 166 174 174 169 176 182 177 183 163 151 146 167 198 272 295 287 249 247 242 212 269 290 306 314 303 291 283 285 298 305 301 293 292 295 294
195 186 179 182 182 177 179 172 167 178 170 173 179 175 172 190 170 162 159 156 159 251 263 260 271 239 232 227 247 249 256 279 287 287 287 292 302 307 305 298 293 289 287
184 182 180 180 182 178 176 171 178 181 173 177 178 178 176 192 184 175 162 163 165 198 239 238 239 240 232 229 240 226 238 258 265 268 276 284 292 293 293 293 291 288 284
180 176 181 181 181 180 176 172 179 182 174 181 176 177 189 193 189 176 171 175 178 183 225 229 228 241 244 252 246 233 239 259 258 259 263 270 279 281 283 286 289 287 279
180 181 185 184 185 187 183 181 187 180 185 190 188 188 201 194 193 194 180 183 191 177 218 251 238 240 225 239 255 250 250 242 254 263 266 268 271 272 275 281 282 282 277
186 185 183 183 185 185 185 188 193 194 194 199 199 194 204 198 202 201 193 204 208 198 197 233 241 225 231 235 231 237 255 255 252 265 265 266 267 269 273 278 280 279 276
186 185 183 186 189 187 188 193 194 197 202 205 201 201 205 198 208 206 204 211 215 218 200 208 237 233 238 246 244 256 257 261 266 267 263 262 265 269 272 275 277 274 273
182 185 189 190 189 189 191 191 191 198 206 210 207 206 206 206 210 207 213 215 207 210 208 210 228 236 233 238 213 245 272 260 269 280 267 267 268 269 270 271 273 272 270
181 186 184 188 188 190 196 193 194 199 202 207 211 212 214 218 221 216 216 210 201 207 211 219 229 234 235 220 227 220 252 276 273 258 262 268 268 264 264 265 264 263 266
178 176 186 189 193 203 202 199 195 197 199 203 212 218 224 225 228 229 227 220 208 209 215 215 226 229 237 232 225 228 232 259 273 245 231 270 251 257 259 252 261 264 268
177 181 194 194 200 206 200 197 195 191 196 206 212 213 225 231 230 227 234 232 226 228 223 219 225 231 229 221 211 223 224 234 247 244 237 269 260 258 260 263 266 268 269
185 188 196 202 205 211 203 201 199 196 201 211 213 212 215 221 220 216 218 228 234 237 232 225 227 233 233 219 212 222 227 244 274 264 217 252 259 262 276 268 267 264 267
190 197 201 200 206 222 207 203 199 202 209 217 217 216 216 220 226 221 216 223 239 252 256 245 245 249 247 237 219 186 196 233 263 254 219 227 253 279 277 266 267 268 271
197 196 207 211 213 224 215 210 206 203 212 222 223 224 226 230 230 222 218 218 235 246 243 253 255 255 242 228 221 209 203 225 251 250 216 210 241 265 281 266 268 277 276